Meteo Giornale » Osservazioni meteo Francia » Parigi-Orly

ore: 19:30 - Osservazioni Meteo Parigi-Orly
Lat. 48° 44' N Lon. 2° 24' E Alt. 89 metri s.l.m.

sereno Europe/Paris

20 °C

Sereno

Temp. 24 Ore

7 °C

21 °C

Ovest/Sud-Ovest

16.7 Km/h

Dew point 9 °C

Umidità 49 %

Visibilità  10 Km

Il sole sorge alle ore 06:39

Il sole tramonta alle ore 20:56

Data e Ora Cielo e Fenomeni T °C DP °C Um. % Pres. hPa Vis. km Vento km/h
Oggi h: 19:30 sereno Sereno 20 9 49 1014 10 O/SO 16.7
Oggi h: 19:00 sereno Sereno 20 8 45 1015 10 S/SO 18.5
Oggi h: 18:30 sereno Sereno 20 9 49 1015 10 O/SO 18.5
Oggi h: 18:00 sereno Sereno 20 9 49 1016 10 SO 22.2
Oggi h: 17:30 molto_nuvoloso Molto Nuvoloso 21 10 49 1016 10 O/SO 18.5
Oggi h: 17:00 molto_nuvoloso Molto Nuvoloso 20 8 45 1016 10 O/SO 20.3
Oggi h: 16:30 molto_nuvoloso Molto Nuvoloso 20 10 52 1017 10 SO 14.8
Oggi h: 16:00 sereno Sereno 20 8 45 1017 10 SO 18.5
Oggi h: 15:30 molto_nuvoloso Molto Nuvoloso 20 8 45 1018 10 SO 14.8
Oggi h: 15:00 molto_nuvoloso Molto Nuvoloso 19 9 52 1018 10 O 18.5
Oggi h: 14:30 molto_nuvoloso Molto Nuvoloso 19 10 55 1018 10 SO 16.7
Oggi h: 14:00 molto_nuvoloso Molto Nuvoloso 19 10 55 1019 10 O 16.7
Oggi h: 13:30 molto_nuvoloso Molto Nuvoloso 18 9 55 1019 10 O/SO 11.1
Oggi h: 13:00 molto_nuvoloso Molto Nuvoloso 18 9 55 1020 10 SO 16.7
Oggi h: 12:30 molto_nuvoloso Molto Nuvoloso 17 10 63 1020 10 SO 14.8
Oggi h: 12:00 molto_nuvoloso Molto Nuvoloso 16 9 63 1020 10 O/SO 13
Oggi h: 11:30 molto_nuvoloso Molto Nuvoloso 16 9 63 1020 10 O/SO 14.8
Oggi h: 11:00 sereno Sereno 15 8 62 1020 10 O/SO 13
Oggi h: 10:30 sereno Sereno 14 8 67 1020 10 SO 11.1
Oggi h: 10:00 sereno Sereno 13 8 71 1020 10 SO 7.4
Oggi h: 09:30 sereno Sereno 12 7 71 1020 10 SO 7.4
Oggi h: 09:00 sereno Sereno 11 8 81 1021 10 N 3.7
Oggi h: 08:30 sereno Sereno 10 8 87 1021 10 N 5.5
Oggi h: 08:00 sereno Sereno 9 8 93 1020 10 N 5.5
Oggi h: 07:30 sereno Sereno 8 7 93 1020 10 S/SO 7.4
Oggi h: 07:00 sereno Sereno 7 7 100 1020 10 N 1.8
Oggi h: 06:30 sereno Sereno 7 6 93 1020 10 N 0
Oggi h: 06:00 sereno Sereno 7 5 87 1020 10 N 3.7
Oggi h: 05:30 sereno Sereno 8 6 87 1020 10 N 1.8
Oggi h: 05:00 sereno Sereno 8 7 93 1020 10 N 0
Oggi h: 04:30 sereno Sereno 8 7 93 1020 10 N 5.5
Oggi h: 04:00 sereno Sereno 7 6 93 1020 10 N 5.5
Oggi h: 03:30 poco_nuvoloso Poco Nuvoloso 7 6 93 1020 10 N 5.5
Oggi h: 03:00 poco_nuvoloso Poco Nuvoloso 8 5 81 1020 10 N 3.7
Oggi h: 02:30 poco_nuvoloso Poco Nuvoloso 9 5 75 1020 10 N 0
Oggi h: 02:00 poco_nuvoloso Poco Nuvoloso 11 6 71 1020 10 N 5.5
Oggi h: 01:30 poco_nuvoloso Poco Nuvoloso 11 7 76 1021 10 N/NO 7.4
Oggi h: 01:00 sereno Sereno 12 7 71 1021 10 NO 9.3
Oggi h: 00:30 sereno Sereno 12 7 71 1020 10 N/NO 9.3
Oggi h: 00:00 sereno Sereno 13 7 66 1020 10 N/NO 13
Ieri h: 23:30 sereno Sereno 14 7 62 1020 10 NO 16.7
Ieri h: 23:00 sereno Sereno 13 8 71 1020 10 NO 13
Ieri h: 22:30 molto_nuvoloso Molto Nuvoloso 14 8 67 1020 10 NO 11.1
Ieri h: 22:00 molto_nuvoloso Molto Nuvoloso 14 8 67 1020 10 O/NO 7.4
Ieri h: 21:30 molto_nuvoloso Molto Nuvoloso 13 9 76 1019 10 O/NO 9.3
Ieri h: 21:00 molto_nuvoloso Molto Nuvoloso 14 8 67 1019 10 O/NO 13
Ieri h: 20:30 molto_nuvoloso Molto Nuvoloso 16 9 63 1019 10 NO 13
Ieri h: 20:00 molto_nuvoloso Molto Nuvoloso 17 9 59 1019 10 NO 14.8